User: anonymous   Login
Location: Champs
(48.8539°N, 2.6040°E)
Time: 00:46:39
(UTC+00:00)
Language:

USA 308 - Orbit

View from above orbital plane
View from above orbital plane
View from above satellite
View from above satellite

Ground track
Ground track

The orbit data is extracted from the following two-line orbital elements,

1 45876U 20046D   22014.23532256 0.00005000  00000-0  39566-3 0    09
2 45876  53.9779  70.1917 0005299 314.5805  45.4194 15.00155157    05
Epoch (UTC): 14 January 2022 05:38:51
Eccentricity: 0.0005299
inclination: 53.9779°
perigee height: 563 km
apogee height: 570 km
right ascension of ascending node: 70.1917°
argument of perigee: 314.5805°
revolutions per day: 15.00155157
mean anomaly at epoch: 45.4194°
orbit number at epoch: 0

The dashed part of the orbit path shows where the satellite is in the earth's shadow,  

DLR